Weather History for OMAA - November, 2013

Change the Weather History Date:

Saturday, November 23, 2013

  Actual Average Record
Temperature  
Mean Temperature 70 °F -  
Max Temperature 75 °F 80 °F 96 °F (2004)
Min Temperature 65 °F 60 °F 59 °F (1996)
Cooling Degree Days 5    
Growing Degree Days 20 (Base 50)    
Moisture  
Dew Point 63 °F    
Average Humidity 78    
Maximum Humidity 88    
Minimum Humidity 60    
Precipitation  
Precipitation 0.20 in 0.01 in - ()
Sea Level Pressure  
Sea Level Pressure 29.94 in    
Wind  
Wind Speed 7 mph ()    
Max Wind Speed 14 mph    
Max Gust Speed -    
Visibility 5.5 miles    
Events Rain    
Averages and records for this station are not official NWS values.
T = Trace of Precipitation, MM = Missing Value Source: Averaged Metar Reports

Daily Weather History Graph

Daily Weather History Graph

Search for Another Location

Airport or City:

Trip Planner

Search our weather history database for the weather conditions in past years. The results will help you decide how hot, cold, wet, or windy it might be!

Date:

Astronomy

Nov. 23, 2013 Rise Set
Actual Time 6:42 AM GST 5:32 PM GST
Civil Twilight 6:18 AM GST 5:57 PM GST
Nautical Twilight 5:50 AM GST 6:24 PM GST
Astronomical Twilight 5:23 AM GST 6:52 PM GST
Moon 10:26 PM GST (11/23) 10:55 AM GST (11/23)
Length of Visible Light 11h 38m
Length of Day
10h 50m
Waning Gibbous, 73% of the Moon is Illuminated
Nov 23
Waning Gibbous
Nov 25
Last Quarter
Dec 3
New
Dec 9
First Quarter
Dec 17
Full

Hourly Weather History & Observations

Time (GST) Temp. Dew Point Humidity Pressure Visibility Wind Dir Wind Speed Gust Speed Precip Events Conditions
12:00 AM 68.0 °F 59.0 °F 73% 29.92 in - SW 6.9 mph - N/A   Clear
1:00 AM 68 °F 60 °F 68% 29.91 in 6 mi SW 6.9 mph - -   Partly Cloudy
1:00 AM 68.0 °F 59.0 °F 73% 29.89 in - SW 6.9 mph - N/A   Clear
2:00 AM 68.0 °F 60.8 °F 78% 29.89 in 6.2 mi SSW 8.1 mph - N/A   Scattered Clouds
3:00 AM 66.2 °F 60.8 °F 83% 29.89 in 6.2 mi SSW 9.2 mph - N/A   Scattered Clouds
4:00 AM 66 °F 61 °F 78% 29.91 in 6 mi South 6.9 mph - -   Mostly Cloudy
4:00 AM 66.2 °F 60.8 °F 83% 29.89 in 6.2 mi South 6.9 mph - N/A   Mostly Cloudy
5:00 AM 66.2 °F 62.6 °F 88% 29.89 in 6.2 mi South 8.1 mph - N/A   Mostly Cloudy
6:00 AM 68.0 °F 64.4 °F 88% 29.92 in 6.2 mi SSW 8.1 mph - N/A   Scattered Clouds
6:02 AM 66.2 °F 62.6 °F 88% 29.92 in 4.3 mi SSW 6.9 mph - N/A Rain Rain
6:21 AM 68.0 °F 64.4 °F 88% 29.92 in 6.2 mi NNE 3.5 mph - N/A   Scattered Clouds
7:00 AM 68 °F 64 °F 85% 29.95 in 6 mi SW 6.9 mph - - Rain Light Rain
7:00 AM 68.0 °F 64.4 °F 88% 29.95 in 6.2 mi SW 6.9 mph - N/A   Scattered Clouds
8:00 AM 68.0 °F 64.4 °F 88% 29.95 in 5.0 mi SW 6.9 mph - N/A   Scattered Clouds
9:00 AM 69.8 °F 64.4 °F 83% 29.98 in 5.0 mi WSW 9.2 mph - N/A Rain Light Rain
10:00 AM 71 °F 65 °F 78% 29.99 in 5 mi WSW 12.7 mph - - Rain Light Rain
10:00 AM 71.6 °F 66.2 °F 83% 29.98 in 5.0 mi WSW 12.7 mph - N/A Rain Light Rain
10:22 AM 69.8 °F 66.2 °F 88% 29.98 in 3.1 mi West 11.5 mph - N/A Rain Rain
10:42 AM 69.8 °F 66.2 °F 88% 29.98 in 3.7 mi WSW 4.6 mph - N/A   Scattered Clouds
11:00 AM 71.6 °F 66.2 °F 83% 29.98 in 5.0 mi SW 4.6 mph - N/A   Mostly Cloudy
12:00 PM 75.2 °F 66.2 °F 73% 29.95 in 5.0 mi West 11.5 mph - N/A   Mostly Cloudy
1:00 PM 71 °F 66 °F 80% 29.95 in 4 mi NW 13.8 mph - - Rain Light Rain
1:00 PM 71.6 °F 66.2 °F 83% 29.95 in 4.3 mi NW 13.8 mph - N/A Rain Light Rain
2:00 PM 73.4 °F 66.2 °F 78% 29.92 in 5.6 mi West 8.1 mph - N/A   Scattered Clouds
3:00 PM 73.4 °F 64.4 °F 73% 29.92 in 5.6 mi West 6.9 mph - N/A   Scattered Clouds
4:00 PM 75 °F 64 °F 61% 29.92 in 6 mi NNW 6.9 mph - -   Haze
4:00 PM 75.2 °F 64.4 °F 69% 29.92 in 5.6 mi NNW 6.9 mph - N/A   Scattered Clouds
5:00 PM 75.2 °F 62.6 °F 65% 29.92 in 6.2 mi NNW 6.9 mph - N/A   Partly Cloudy
6:00 PM 73.4 °F 62.6 °F 69% 29.95 in 6.2 mi NNW 5.8 mph - N/A   Partly Cloudy
7:00 PM 71.6 °F 60.8 °F 69% 29.95 in 6.2 mi NW 4.6 mph - N/A   Partly Cloudy
8:00 PM 71.6 °F 62.6 °F 73% 29.98 in - NW 2.3 mph - N/A   Clear
9:00 PM 71.6 °F 60.8 °F 69% 29.98 in - Calm Calm - N/A   Clear
10:00 PM 71 °F 60 °F 60% 29.99 in 6 mi North 3.5 mph - -   Scattered Clouds
10:00 PM 71.6 °F 60.8 °F 69% 29.98 in - North 3.5 mph - N/A   Clear
11:00 PM 69.8 °F 60.8 °F 73% 29.98 in - Variable 1.2 mph - N/A   Clear